Location: Caltech
(34.1382°N, 118.1253°W)
Time: 21:33:47
(UTC-07:00)

KITSAT 1 - Visible Passes

Search period start: 30 June 2016 00:00
Search period end: 10 July 2016 00:00
Orbit: 1307 x 1324 km, 66.1° (Epoch: 29 June)

Date Brightness Start Highest point End Pass type
(mag) Time Alt. Az. Time Alt. Az. Time Alt. Az.
01 Jul 12.7 03:56:32 10° ESE 03:58:01 11° E 03:59:30 10° E visible
02 Jul 12.3 04:08:17 10° SE 04:13:36 19° ESE 04:18:55 10° ENE visible
03 Jul 11.7 04:22:28 10° SSE 04:29:18 31° ESE 04:36:09 10° NE visible
04 Jul 11.1 04:37:26 10° S 04:45:06 48° ESE 04:52:48 10° NE visible
05 Jul 10.5 04:52:58 10° SSW 05:01:01 73° ESE 05:09:08 10° NNE visible
06 Jul 12.2 03:17:27 10° SE 03:22:36 18° ESE 03:27:45 10° ENE visible
06 Jul 10.3 05:08:57 10° SSW 05:17:04 78° WNW 05:25:13 10° NNE visible
07 Jul 11.6 03:31:46 11° SSE 03:38:17 30° ESE 03:45:02 10° NE visible
08 Jul 11.0 03:47:54 16° S 03:54:05 47° ESE 04:01:44 10° NE visible
09 Jul 10.4 04:03:58 20° SSW 04:09:59 71° ESE 04:18:04 10° NNE visible
